| time (UTC) | temp F | wind direction | speed knots | gust knots | rain 1hr in | rain 24hr in | rain mn in | humidity % | barometer mb |
| 20260506044547 | 59 | 259 | 0.0 | 0.9 | 0.00 | 0.00 | 0.00 | 75 | 1012.6 |
| 20260506044047 | 59 | 259 | 0.0 | 0.9 | 0.00 | 0.00 | 0.00 | 75 | 1012.5 |
| 20260506043546 | 59 | 259 | 0.0 | 0.9 | 0.00 | 0.00 | 0.00 | 75 | 1012.4 |
| 20260506043048 | 60 | 259 | 0.0 | 0.9 | 0.00 | 0.00 | 0.00 | 75 | 1012.4 |
| 20260506042546 | 60 | 259 | 0.0 | 0.9 | 0.00 | 0.00 | 0.00 | 75 | 1012.6 |
| 20260506042049 | 60 | 259 | 0.0 | 1.7 | 0.00 | 0.00 | 0.00 | 76 | 1012.5 |
| 20260506041558 | 61 | 259 | 0.0 | 1.7 | 0.00 | 0.00 | 0.00 | 76 | 1012.4 |
| 20260506041046 | 61 | 259 | 0.0 | 0.9 | 0.00 | 0.00 | 0.00 | 75 | 1012.3 |
| 20260506040545 | 62 | 259 | 0.0 | 0.9 | 0.00 | 0.00 | 0.00 | 75 | 1012.3 |
| 20260506040045 | 62 | 111 | 0.0 | 0.9 | 0.00 | 0.00 | 0.00 | 74 | 1012.2 |
| 20260506035545 | 62 | 111 | 0.0 | 0.9 | 0.00 | 0.00 | 0.00 | 73 | 1012.1 |
| 20260506035045 | 63 | 111 | 0.0 | 0.9 | 0.00 | 0.00 | 0.00 | 73 | 1012.0 |
| 20260506034545 | 63 | 111 | 0.0 | 0.9 | 0.00 | 0.00 | 0.00 | 71 | 1012.0 |
| 20260506034046 | 64 | 111 | 0.0 | 0.0 | 0.00 | 0.00 | 0.00 | 71 | 1011.8 |
| 20260506033544 | 64 | 111 | 0.0 | 0.0 | 0.00 | 0.00 | 0.00 | 70 | 1011.8 |
| 20260506033146 | 65 | 111 | 0.0 | 0.0 | 0.00 | 0.00 | 0.00 | 70 | 1011.8 |
| 20260506032544 | 65 | 111 | 0.0 | 0.0 | 0.00 | 0.00 | 0.00 | 70 | 1011.9 |
| 20260506032045 | 66 | 111 | 0.0 | 0.0 | 0.00 | 0.00 | 0.00 | 69 | 1011.9 |
| 20260506031544 | 66 | 111 | 0.0 | 0.0 | 0.00 | 0.00 | 0.00 | 68 | 1011.9 |
| 20260506031043 | 67 | 111 | 0.0 | 0.0 | 0.00 | 0.00 | 0.00 | 67 | 1011.7 |
| 20260506030547 | 67 | 111 | 0.0 | 0.0 | 0.00 | 0.00 | 0.00 | 67 | 1011.7 |
| 20260506030043 | 67 | 111 | 0.0 | 0.0 | 0.00 | 0.00 | 0.00 | 66 | 1011.8 |
| 20260506025542 | 67 | 111 | 0.0 | 0.0 | 0.00 | 0.00 | 0.00 | 65 | 1011.9 |
| 20260506025044 | 68 | 111 | 0.0 | 0.0 | 0.00 | 0.00 | 0.00 | 64 | 1011.8 |
| 20260506024542 | 68 | 111 | 0.0 | 0.0 | 0.00 | 0.00 | 0.00 | 64 | 1011.7 |
| 20260506024042 | 68 | 111 | 0.0 | 0.0 | 0.00 | 0.00 | 0.00 | 64 | 1011.7 |
| 20260506023542 | 68 | 111 | 0.0 | 0.0 | 0.00 | 0.00 | 0.00 | 62 | 1011.7 |
| 20260506023059 | 68 | 111 | 0.0 | 0.9 | 0.00 | 0.00 | 0.00 | 60 | 1011.6 |
| 20260506022541 | 68 | 111 | 0.0 | 0.9 | 0.00 | 0.00 | 0.00 | 60 | 1011.7 |
| 20260506022041 | 68 | 111 | 0.0 | 0.9 | 0.00 | 0.00 | 0.00 | 60 | 1011.6 |
| 20260506021604 | 68 | 111 | 0.0 | 0.9 | 0.00 | 0.00 | 0.00 | 59 | 1011.7 |
| 20260506021044 | 68 | 111 | 0.0 | 0.9 | 0.00 | 0.00 | 0.00 | 59 | 1011.7 |
| 20260506020541 | 68 | 111 | 0.0 | 1.7 | 0.00 | 0.00 | 0.00 | 59 | 1011.6 |
| 20260506020041 | 68 | 111 | 0.0 | 1.7 | 0.00 | 0.00 | 0.00 | 59 | 1011.4 |
| 20260506015541 | 68 | 110 | 0.0 | 1.7 | 0.00 | 0.00 | 0.00 | 59 | 1011.4 |
| 20260506015044 | 68 | 110 | 0.0 | 2.6 | 0.00 | 0.00 | 0.00 | 60 | 1011.4 |
| 20260506014541 | 68 | 146 | 0.0 | 2.6 | 0.00 | 0.00 | 0.00 | 60 | 1011.4 |
| 20260506014045 | 69 | 151 | 0.0 | 2.6 | 0.00 | 0.00 | 0.00 | 59 | 1011.4 |
| 20260506013544 | 70 | 165 | 0.0 | 1.7 | 0.00 | 0.00 | 0.00 | 55 | 1011.4 |
| 20260506013042 | 70 | 164 | 0.0 | 1.7 | 0.00 | 0.00 | 0.00 | 56 | 1011.4 |
| 20260506012540 | 71 | 248 | 0.0 | 1.7 | 0.00 | 0.00 | 0.00 | 56 | 1011.3 |
| 20260506012040 | 71 | 186 | 0.0 | 1.7 | 0.00 | 0.00 | 0.00 | 53 | 1011.3 |
| 20260506011541 | 71 | 267 | 0.0 | 3.5 | 0.00 | 0.00 | 0.00 | 53 | 1011.3 |
| 20260506011039 | 72 | 270 | 0.0 | 3.5 | 0.00 | 0.00 | 0.00 | 53 | 1011.4 |
| 20260506010540 | 71 | 294 | 0.0 | 1.7 | 0.00 | 0.00 | 0.00 | 52 | 1011.4 |
| 20260506010041 | 71 | 301 | 0.0 | 3.5 | 0.00 | 0.00 | 0.00 | 53 | 1011.3 |
| 20260506005543 | 72 | 297 | 0.9 | 3.5 | 0.00 | 0.00 | 0.00 | 52 | 1011.3 |
| 20260506005039 | 72 | 234 | 0.0 | 5.2 | 0.00 | 0.00 | 0.00 | 52 | 1011.4 |
| 20260506004539 | 72 | 194 | 0.0 | 5.2 | 0.00 | 0.00 | 0.00 | 49 | 1011.4 |
| 20260506004039 | 72 | 255 | 0.0 | 1.7 | 0.00 | 0.00 | 0.00 | 52 | 1011.5 |
| 20260506003538 | 72 | 196 | 0.0 | 1.7 | 0.00 | 0.00 | 0.00 | 52 | 1011.4 |
| 20260506003138 | 72 | 154 | 0.0 | 2.6 | 0.00 | 0.00 | 0.00 | 49 | 1011.4 |
| 20260506002537 | 72 | 113 | 0.0 | 3.5 | 0.00 | 0.00 | 0.00 | 53 | 1011.4 |
| 20260506002037 | 73 | 15 | 0.0 | 3.5 | 0.00 | 0.00 | 0.00 | 52 | 1011.4 |
| 20260506001538 | 73 | 311 | 0.9 | 3.5 | 0.00 | 0.00 | 0.00 | 47 | 1011.5 |
| 20260506001038 | 73 | 113 | 0.0 | 2.6 | 0.00 | 0.00 | 0.00 | 54 | 1011.5 |
| 20260506000537 | 73 | 257 | 0.0 | 3.5 | 0.00 | 0.00 | 0.00 | 53 | 1011.7 |
| 20260506000037 | 74 | 258 | 0.9 | 3.5 | 0.00 | 0.00 | 0.00 | 45 | 1011.7 |
| 20260505235539 | 75 | 78 | 0.0 | 3.5 | 0.00 | 0.00 | 0.00 | 47 | 1011.7 |
| 20260505235037 | 75 | 245 | 0.0 | 3.5 | 0.00 | 0.00 | 0.00 | 44 | 1011.7 |
| 20260505234537 | 74 | 193 | 0.0 | 2.6 | 0.00 | 0.00 | 0.00 | 45 | 1011.7 |
| 20260505234037 | 75 | 11 | 0.0 | 3.5 | 0.00 | 0.00 | 0.00 | 46 | 1011.8 |
| 20260505233536 | 75 | 250 | 0.0 | 4.3 | 0.00 | 0.00 | 0.00 | 48 | 1011.9 |
| 20260505233037 | 75 | 121 | 0.9 | 4.3 | 0.00 | 0.00 | 0.00 | 47 | 1011.9 |
| 20260505232536 | 75 | 63 | 0.0 | 2.6 | 0.00 | 0.00 | 0.00 | 52 | 1011.9 |
| 20260505232036 | 75 | 138 | 0.0 | 3.5 | 0.00 | 0.00 | 0.00 | 46 | 1012.0 |
| 20260505231548 | 75 | 296 | 0.0 | 3.5 | 0.00 | 0.00 | 0.00 | 48 | 1012.1 |
| 20260505231035 | 76 | 100 | 0.0 | 2.6 | 0.00 | 0.00 | 0.00 | 46 | 1012.1 |
| 20260505230535 | 75 | 282 | 0.0 | 4.3 | 0.00 | 0.00 | 0.00 | 50 | 1012.1 |
| 20260505230035 | 75 | 90 | 0.0 | 4.3 | 0.00 | 0.00 | 0.00 | 50 | 1012.1 |
| 20260505225535 | 74 | 264 | 0.9 | 2.6 | 0.00 | 0.00 | 0.00 | 45 | 1012.1 |
| 20260505225035 | 74 | 84 | 0.0 | 3.5 | 0.00 | 0.00 | 0.00 | 46 | 1012.3 |
| 20260505224536 | 75 | 305 | 0.0 | 6.1 | 0.00 | 0.00 | 0.00 | 45 | 1012.3 |
| 20260505224036 | 75 | 285 | 1.7 | 6.1 | 0.00 | 0.00 | 0.00 | 46 | 1012.3 |
| 20260505223534 | 75 | 132 | 0.0 | 4.3 | 0.00 | 0.00 | 0.00 | 49 | 1012.3 |
| 20260505223034 | 75 | 96 | 0.0 | 4.3 | 0.00 | 0.00 | 0.00 | 47 | 1012.4 |
| 20260505222534 | 75 | 297 | 0.9 | 7.0 | 0.00 | 0.00 | 0.00 | 44 | 1012.5 |
| 20260505222034 | 76 | 266 | 0.9 | 7.0 | 0.00 | 0.00 | 0.00 | 45 | 1012.5 |
| 20260505221535 | 75 | 318 | 0.9 | 4.3 | 0.00 | 0.00 | 0.00 | 46 | 1012.4 |
| 20260505221033 | 75 | 311 | 0.9 | 6.1 | 0.00 | 0.00 | 0.00 | 45 | 1012.4 |
| 20260505220534 | 74 | 257 | 0.9 | 6.1 | 0.00 | 0.00 | 0.00 | 46 | 1012.6 |
| 20260505220034 | 75 | 277 | 0.9 | 3.5 | 0.00 | 0.00 | 0.00 | 47 | 1012.6 |
| 20260505215533 | 74 | 67 | 0.0 | 7.0 | 0.00 | 0.00 | 0.00 | 48 | 1012.5 |
| 20260505215033 | 75 | 174 | 1.7 | 7.0 | 0.00 | 0.00 | 0.00 | 47 | 1012.6 |
| 20260505214548 | 75 | 67 | 0.9 | 3.5 | 0.00 | 0.00 | 0.00 | 49 | 1012.6 |
| 20260505214033 | 74 | 350 | 0.0 | 4.3 | 0.00 | 0.00 | 0.00 | 46 | 1012.7 |
| 20260505213531 | 74 | 288 | 0.9 | 4.3 | 0.00 | 0.00 | 0.00 | 47 | 1012.8 |
| 20260505213038 | 75 | 348 | 0.0 | 4.3 | 0.00 | 0.00 | 0.00 | 48 | 1012.8 |
| 20260505212531 | 75 | 87 | 0.0 | 5.2 | 0.00 | 0.00 | 0.00 | 47 | 1012.9 |
| 20260505212033 | 73 | 191 | 0.9 | 7.0 | 0.00 | 0.00 | 0.00 | 46 | 1013.0 |
| 20260505211531 | 74 | 288 | 0.9 | 7.0 | 0.00 | 0.00 | 0.00 | 47 | 1013.0 |
| 20260505211031 | 74 | 221 | 0.0 | 5.2 | 0.00 | 0.00 | 0.00 | 46 | 1013.2 |
| 20260505210532 | 74 | 74 | 0.0 | 4.3 | 0.00 | 0.00 | 0.00 | 45 | 1013.1 |
| 20260505210029 | 73 | 75 | 0.9 | 7.0 | 0.00 | 0.00 | 0.00 | 47 | 1013.1 |
| 20260505205531 | 74 | 292 | 0.9 | 5.2 | 0.00 | 0.00 | 0.00 | 53 | 1013.1 |
| 20260505205028 | 73 | 130 | 1.7 | 5.2 | 0.00 | 0.00 | 0.00 | 55 | 1013.1 |
| 20260505204528 | 72 | 287 | 1.7 | 6.1 | 0.00 | 0.00 | 0.00 | 48 | 1013.1 |
| 20260505204032 | 73 | 258 | 1.7 | 6.1 | 0.00 | 0.00 | 0.00 | 48 | 1013.1 |
| 20260505203528 | 73 | 32 | 0.0 | 3.5 | 0.00 | 0.00 | 0.00 | 46 | 1013.1 |
| 20260505203040 | 73 | 233 | 0.0 | 5.2 | 0.00 | 0.00 | 0.00 | 49 | 1013.1 |
| 20260505202526 | 72 | 284 | 0.9 | 5.2 | 0.00 | 0.00 | 0.00 | 50 | 1013.2 |
| 20260505202025 | 72 | 215 | 0.9 | 4.3 | 0.00 | 0.00 | 0.00 | 50 | 1013.3 |
| 20260505201532 | 72 | 311 | 0.9 | 6.1 | 0.00 | 0.00 | 0.00 | 49 | 1013.3 |
| 20260505201028 | 71 | 266 | 0.0 | 8.7 | 0.00 | 0.00 | 0.00 | 53 | 1013.3 |
| 20260505200525 | 71 | 223 | 0.9 | 6.1 | 0.00 | 0.00 | 0.00 | 50 | 1013.2 |
| 20260505200024 | 72 | 255 | 1.7 | 6.1 | 0.00 | 0.00 | 0.00 | 50 | 1013.3 |
| 20260505195525 | 71 | 340 | 0.0 | 7.0 | 0.00 | 0.00 | 0.00 | 51 | 1013.3 |
| 20260505195022 | 70 | 321 | 0.9 | 7.0 | 0.00 | 0.00 | 0.00 | 54 | 1013.3 |
| 20260505194521 | 70 | 95 | 1.7 | 7.0 | 0.00 | 0.00 | 0.00 | 52 | 1013.2 |
| 20260505194024 | 69 | 279 | 0.0 | 3.5 | 0.00 | 0.00 | 0.00 | 53 | 1013.2 |
| 20260505193521 | 70 | 107 | 0.0 | 5.2 | 0.00 | 0.00 | 0.00 | 55 | 1013.1 |
| 20260505193029 | 69 | 272 | 1.7 | 6.1 | 0.00 | 0.00 | 0.00 | 54 | 1013.1 |
| 20260505192520 | 70 | 274 | 0.9 | 7.0 | 0.00 | 0.00 | 0.00 | 52 | 1013.2 |
| 20260505192020 | 70 | 171 | 1.7 | 7.0 | 0.00 | 0.00 | 0.00 | 54 | 1013.2 |
| 20260505191520 | 69 | 131 | 0.0 | 6.1 | 0.00 | 0.00 | 0.00 | 56 | 1013.2 |
| 20260505191020 | 68 | 290 | 0.0 | 6.1 | 0.00 | 0.00 | 0.00 | 55 | 1013.2 |
| 20260505190518 | 68 | 273 | 0.9 | 7.0 | 0.00 | 0.00 | 0.00 | 55 | 1013.3 |
| 20260505190025 | 69 | 279 | 2.6 | 7.8 | 0.00 | 0.00 | 0.00 | 53 | 1013.3 |
| 20260505185521 | 68 | 286 | 2.6 | 7.8 | 0.00 | 0.00 | 0.00 | 55 | 1013.3 |
| 20260505185018 | 69 | 311 | 0.9 | 7.0 | 0.00 | 0.00 | 0.00 | 57 | 1013.2 |
| 20260505184518 | 69 | 255 | 1.7 | 7.0 | 0.00 | 0.00 | 0.00 | 56 | 1013.3 |
| 20260505184018 | 69 | 333 | 0.0 | 5.2 | 0.00 | 0.00 | 0.00 | 56 | 1013.2 |
| 20260505183516 | 69 | 182 | 0.0 | 5.2 | 0.00 | 0.00 | 0.00 | 58 | 1013.1 |
| 20260505183020 | 68 | 128 | 0.9 | 6.1 | 0.00 | 0.00 | 0.00 | 57 | 1013.1 |
| 20260505182517 | 68 | 110 | 0.9 | 7.8 | 0.00 | 0.00 | 0.00 | 56 | 1013.1 |
| 20260505182016 | 68 | 261 | 2.6 | 7.8 | 0.00 | 0.00 | 0.00 | 58 | 1013.1 |
| 20260505181515 | 69 | 98 | 1.7 | 7.8 | 0.00 | 0.00 | 0.00 | 56 | 1013.1 |
| 20260505181013 | 68 | 259 | 1.7 | 7.8 | 0.00 | 0.00 | 0.00 | 59 | 1013.1 |
| 20260505180513 | 67 | 87 | 0.9 | 6.1 | 0.00 | 0.00 | 0.00 | 61 | 1013.1 |
| 20260505180018 | 67 | 290 | 0.9 | 6.1 | 0.00 | 0.00 | 0.00 | 60 | 1013.2 |
| 20260505175513 | 67 | 15 | 0.0 | 7.8 | 0.00 | 0.00 | 0.00 | 60 | 1013.1 |
| 20260505175015 | 67 | 265 | 0.9 | 7.8 | 0.00 | 0.00 | 0.00 | 59 | 1013.1 |
| 20260505174515 | 67 | 282 | 1.7 | 7.0 | 0.00 | 0.00 | 0.00 | 61 | 1013.1 |
| 20260505174013 | 66 | 69 | 0.0 | 7.0 | 0.00 | 0.00 | 0.00 | 62 | 1013.0 |
| 20260505173512 | 67 | 289 | 1.7 | 7.0 | 0.00 | 0.00 | 0.00 | 60 | 1013.1 |
| 20260505173011 | 66 | 163 | 0.9 | 5.2 | 0.00 | 0.00 | 0.00 | 62 | 1013.1 |
| 20260505172511 | 66 | 96 | 0.9 | 3.5 | 0.00 | 0.00 | 0.00 | 62 | 1013.1 |
| 20260505172012 | 66 | 325 | 0.0 | 4.3 | 0.00 | 0.00 | 0.00 | 64 | 1013.1 |
| 20260505171608 | 65 | 81 | 0.9 | 4.3 | 0.00 | 0.00 | 0.00 | 65 | 1013.1 |
| 20260505171007 | 65 | 288 | 1.7 | 7.8 | 0.00 | 0.00 | 0.00 | 64 | 1013.2 |
| 20260505170505 | 64 | 188 | 0.9 | 7.8 | 0.00 | 0.00 | 0.00 | 66 | 1013.1 |
| 20260505170005 | 64 | 293 | 0.9 | 4.3 | 0.00 | 0.00 | 0.00 | 66 | 1013.2 |
| 20260505165504 | 63 | 5 | 0.9 | 4.3 | 0.00 | 0.00 | 0.00 | 67 | 1013.1 |
| 20260505165005 | 63 | 251 | 0.9 | 5.2 | 0.00 | 0.00 | 0.00 | 67 | 1013.1 |
| 20260505164505 | 63 | 219 | 0.9 | 5.2 | 0.00 | 0.00 | 0.00 | 67 | 1013.1 |
| 20260505164004 | 63 | 273 | 0.0 | 5.2 | 0.00 | 0.00 | 0.00 | 68 | 1013.0 |
| 20260505163504 | 63 | 53 | 1.7 | 7.0 | 0.00 | 0.00 | 0.00 | 68 | 1013.0 |
| 20260505163004 | 63 | 279 | 2.6 | 7.0 | 0.00 | 0.00 | 0.00 | 68 | 1012.9 |
| 20260505162502 | 63 | 297 | 0.0 | 3.5 | 0.00 | 0.00 | 0.00 | 70 | 1013.0 |
| 20260505162002 | 63 | 52 | 0.9 | 3.5 | 0.00 | 0.00 | 0.00 | 70 | 1012.8 |
| 20260505161502 | 62 | 329 | 0.0 | 3.5 | 0.00 | 0.00 | 0.00 | 69 | 1012.9 |
| 20260505161002 | 62 | 282 | 0.0 | 4.3 | 0.00 | 0.00 | 0.00 | 71 | 1012.9 |
| 20260505160501 | 62 | 300 | 0.0 | 6.1 | 0.00 | 0.00 | 0.00 | 70 | 1012.9 |
| 20260505153106 | 62 | 113 | 0.9 | 4.3 | 0.00 | 0.00 | 0.00 | 71 | 1012.7 |
| 20260505152557 | 62 | 183 | 0.0 | 4.3 | 0.00 | 0.00 | 0.00 | 72 | 1012.6 |
| 20260505152057 | 61 | 117 | 0.9 | 2.6 | 0.00 | 0.00 | 0.00 | 73 | 1012.6 |
| 20260505151605 | 61 | 73 | 0.9 | 2.6 | 0.00 | 0.00 | 0.00 | 73 | 1012.5 |
| 20260505151059 | 61 | 289 | 0.0 | 1.7 | 0.00 | 0.00 | 0.00 | 73 | 1012.6 |
| 20260505150556 | 61 | 51 | 0.0 | 2.6 | 0.00 | 0.00 | 0.00 | 74 | 1012.7 |
| 20260505140549 | 56 | 281 | 0.0 | 2.6 | 0.00 | 0.00 | 0.00 | 80 | 1011.8 |
| 20260505125037 | 56 | 257 | 0.0 | 0.9 | 0.00 | 0.00 | 0.00 | 74 | 1011.0 |
| 20260505124536 | 56 | 257 | 0.0 | 0.9 | 0.00 | 0.00 | 0.00 | 73 | 1010.8 |
| 20260505124035 | 56 | 257 | 0.0 | 0.9 | 0.00 | 0.00 | 0.00 | 73 | 1010.8 |
| 20260505123538 | 56 | 257 | 0.0 | 1.7 | 0.00 | 0.00 | 0.00 | 72 | 1010.8 |
| 20260505123034 | 56 | 257 | 0.0 | 1.7 | 0.00 | 0.00 | 0.00 | 72 | 1010.7 |
| 20260505122533 | 56 | 257 | 0.0 | 1.7 | 0.00 | 0.00 | 0.00 | 72 | 1010.7 |
| 20260505122033 | 56 | 257 | 0.0 | 1.7 | 0.00 | 0.00 | 0.00 | 72 | 1010.7 |
| 20260505121533 | 56 | 257 | 0.0 | 1.7 | 0.00 | 0.00 | 0.00 | 72 | 1010.6 |
| 20260505121032 | 57 | 257 | 0.0 | 0.9 | 0.00 | 0.00 | 0.00 | 72 | 1010.5 |
| 20260505120535 | 57 | 257 | 0.0 | 0.9 | 0.00 | 0.00 | 0.00 | 71 | 1010.6 |
| 20260505120030 | 57 | 257 | 0.0 | 0.9 | 0.00 | 0.00 | 0.00 | 70 | 1010.4 |
| 20260505115533 | 57 | 257 | 0.0 | 1.7 | 0.00 | 0.00 | 0.00 | 69 | 1010.5 |
| 20260505115030 | 57 | 257 | 0.0 | 1.7 | 0.00 | 0.00 | 0.00 | 69 | 1010.4 |
| 20260505114529 | 57 | 264 | 0.0 | 1.7 | 0.00 | 0.00 | 0.00 | 69 | 1010.4 |
| 20260505114029 | 57 | 264 | 0.0 | 1.7 | 0.00 | 0.00 | 0.00 | 69 | 1010.5 |
| 20260505113527 | 58 | 264 | 0.0 | 0.0 | 0.00 | 0.00 | 0.00 | 68 | 1010.3 |
| 20260505113027 | 58 | 264 | 0.0 | 0.0 | 0.00 | 0.00 | 0.00 | 69 | 1010.4 |
| 20260505112526 | 58 | 264 | 0.0 | 0.0 | 0.00 | 0.00 | 0.00 | 69 | 1010.3 |
| 20260505112025 | 58 | 264 | 0.0 | 0.0 | 0.00 | 0.00 | 0.00 | 67 | 1010.2 |
| 20260505111524 | 58 | 264 | 0.0 | 0.0 | 0.00 | 0.00 | 0.00 | 64 | 1010.2 |
| 20260505111022 | 58 | 264 | 0.0 | 0.0 | 0.00 | 0.00 | 0.00 | 64 | 1010.2 |
| 20260505110523 | 58 | 264 | 0.0 | 0.0 | 0.00 | 0.00 | 0.00 | 63 | 1010.1 |
| 20260505102016 | 60 | 264 | 0.0 | 0.0 | 0.00 | 0.00 | 0.00 | 60 | 1009.7 |
| 20260505101518 | 60 | 264 | 0.0 | 0.9 | 0.00 | 0.00 | 0.00 | 60 | 1009.7 |
| 20260505101014 | 60 | 264 | 0.0 | 0.9 | 0.00 | 0.00 | 0.00 | 59 | 1009.7 |
| 20260505100516 | 60 | 264 | 0.0 | 0.9 | 0.00 | 0.00 | 0.00 | 58 | 1009.6 |
| 20260505100019 | 61 | 264 | 0.0 | 0.9 | 0.00 | 0.00 | 0.00 | 59 | 1009.5 |
| 20260505095512 | 61 | 264 | 0.0 | 0.0 | 0.00 | 0.00 | 0.00 | 61 | 1009.4 |
| 20260505095012 | 61 | 264 | 0.0 | 0.0 | 0.00 | 0.00 | 0.00 | 62 | 1009.5 |
| 20260505094511 | 61 | 264 | 0.0 | 0.0 | 0.00 | 0.00 | 0.00 | 60 | 1009.4 |
| 20260505094010 | 61 | 264 | 0.0 | 0.0 | 0.00 | 0.00 | 0.00 | 56 | 1009.4 |
| 20260505093509 | 61 | 264 | 0.0 | 0.9 | 0.00 | 0.00 | 0.00 | 56 | 1009.3 |
| 20260505093015 | 61 | 264 | 0.0 | 0.9 | 0.00 | 0.00 | 0.00 | 57 | 1009.1 |
| 20260505092509 | 62 | 264 | 0.0 | 0.9 | 0.00 | 0.00 | 0.00 | 55 | 1009.2 |
| 20260505092008 | 62 | 259 | 0.0 | 0.0 | 0.00 | 0.00 | 0.00 | 55 | 1009.1 |
| 20260505091507 | 62 | 259 | 0.0 | 0.9 | 0.00 | 0.00 | 0.00 | 55 | 1009.1 |
| 20260505091007 | 62 | 259 | 0.0 | 0.9 | 0.00 | 0.00 | 0.00 | 57 | 1009.2 |
| 20260505090505 | 62 | 259 | 0.0 | 0.9 | 0.00 | 0.00 | 0.00 | 55 | 1009.2 |
| 20260505090007 | 63 | 259 | 0.0 | 0.0 | 0.00 | 0.00 | 0.00 | 55 | 1009.1 |
| 20260505085505 | 63 | 259 | 0.0 | 0.0 | 0.00 | 0.00 | 0.00 | 53 | 1009.0 |
| 20260505085004 | 63 | 259 | 0.0 | 0.9 | 0.00 | 0.00 | 0.00 | 52 | 1009.0 |
| 20260505084506 | 63 | 259 | 0.0 | 0.9 | 0.00 | 0.00 | 0.00 | 53 | 1008.9 |
| 20260505084004 | 63 | 259 | 0.0 | 0.9 | 0.00 | 0.00 | 0.00 | 54 | 1008.9 |
| 20260505083502 | 63 | 259 | 0.0 | 0.9 | 0.00 | 0.00 | 0.00 | 53 | 1008.9 |
| 20260505083105 | 63 | 259 | 0.0 | 0.9 | 0.00 | 0.00 | 0.00 | 55 | 1008.8 |
| 20260505082559 | 63 | 259 | 0.0 | 1.7 | 0.00 | 0.00 | 0.00 | 52 | 1008.8 |
| 20260505082058 | 63 | 259 | 0.0 | 1.7 | 0.00 | 0.00 | 0.00 | 54 | 1008.8 |
| 20260505081602 | 63 | 259 | 0.0 | 1.7 | 0.00 | 0.00 | 0.00 | 54 | 1008.8 |
| 20260505081058 | 63 | 259 | 0.0 | 1.7 | 0.00 | 0.00 | 0.00 | 54 | 1008.8 |
| 20260505080601 | 63 | 257 | 0.0 | 1.7 | 0.00 | 0.00 | 0.00 | 53 | 1008.8 |
| 20260505080057 | 63 | 257 | 0.0 | 1.7 | 0.00 | 0.00 | 0.00 | 54 | 1008.7 |
| 20260505075557 | 64 | 257 | 0.0 | 1.7 | 0.00 | 0.00 | 0.00 | 54 | 1008.8 |
| 20260505075057 | 64 | 257 | 0.0 | 1.7 | 0.00 | 0.00 | 0.00 | 53 | 1008.7 |
| 20260505074556 | 64 | 257 | 0.0 | 1.7 | 0.00 | 0.00 | 0.00 | 55 | 1008.7 |
| 20260505074055 | 64 | 273 | 0.0 | 1.7 | 0.00 | 0.00 | 0.00 | 53 | 1008.7 |
| 20260505073554 | 64 | 266 | 0.0 | 1.7 | 0.00 | 0.00 | 0.00 | 53 | 1008.7 |
| 20260505073056 | 63 | 266 | 0.0 | 1.7 | 0.00 | 0.00 | 0.00 | 53 | 1008.6 |
| 20260505072556 | 63 | 319 | 0.0 | 0.9 | 0.00 | 0.00 | 0.00 | 53 | 1008.6 |
| 20260505072052 | 63 | 334 | 0.0 | 2.6 | 0.00 | 0.00 | 0.00 | 52 | 1008.6 |
| 20260505071554 | 63 | 334 | 0.0 | 2.6 | 0.00 | 0.00 | 0.00 | 54 | 1008.5 |
| 20260505071051 | 63 | 253 | 0.0 | 1.7 | 0.00 | 0.00 | 0.00 | 54 | 1008.4 |
| 20260505070551 | 63 | 268 | 0.0 | 1.7 | 0.00 | 0.00 | 0.00 | 55 | 1008.3 |
| 20260505070050 | 63 | 268 | 0.0 | 2.6 | 0.00 | 0.00 | 0.00 | 53 | 1008.3 |
| 20260505065549 | 63 | 268 | 0.0 | 2.6 | 0.00 | 0.00 | 0.00 | 54 | 1008.3 |
| 20260505065049 | 63 | 321 | 0.0 | 2.6 | 0.00 | 0.00 | 0.00 | 54 | 1008.3 |
| 20260505064548 | 63 | 333 | 0.0 | 1.7 | 0.00 | 0.00 | 0.00 | 55 | 1008.2 |
| 20260505064048 | 63 | 333 | 0.0 | 1.7 | 0.00 | 0.00 | 0.00 | 55 | 1008.0 |
| 20260505063551 | 63 | 333 | 0.0 | 1.7 | 0.00 | 0.00 | 0.00 | 54 | 1008.0 |
| 20260505063048 | 63 | 333 | 0.0 | 1.7 | 0.00 | 0.00 | 0.00 | 55 | 1008.0 |
| 20260505062548 | 64 | 333 | 0.0 | 0.9 | 0.00 | 0.00 | 0.00 | 54 | 1007.8 |
| 20260505062047 | 64 | 333 | 0.0 | 1.7 | 0.00 | 0.00 | 0.00 | 54 | 1007.8 |
| 20260505061549 | 64 | 333 | 0.0 | 1.7 | 0.00 | 0.00 | 0.00 | 54 | 1007.8 |
| 20260505061047 | 64 | 333 | 0.0 | 1.7 | 0.00 | 0.00 | 0.00 | 52 | 1007.9 |
| 20260505060547 | 64 | 333 | 0.0 | 1.7 | 0.00 | 0.00 | 0.00 | 53 | 1007.7 |
| 20260505060047 | 64 | 333 | 0.0 | 0.9 | 0.00 | 0.00 | 0.00 | 51 | 1007.8 |
| 20260505055547 | 64 | 333 | 0.0 | 1.7 | 0.00 | 0.00 | 0.00 | 50 | 1007.7 |
| 20260505055047 | 65 | 333 | 0.0 | 1.7 | 0.00 | 0.00 | 0.00 | 49 | 1007.7 |
| 20260505054547 | 65 | 333 | 0.0 | 1.7 | 0.00 | 0.00 | 0.00 | 50 | 1007.7 |
| 20260505054046 | 65 | 333 | 0.0 | 1.7 | 0.00 | 0.00 | 0.00 | 50 | 1007.6 |
| 20260505053547 | 65 | 333 | 0.0 | 0.9 | 0.00 | 0.00 | 0.00 | 51 | 1007.5 |
| 20260505053049 | 65 | 333 | 0.0 | 1.7 | 0.00 | 0.00 | 0.00 | 49 | 1007.5 |
| 20260505052545 | 65 | 333 | 0.9 | 1.7 | 0.00 | 0.00 | 0.00 | 48 | 1007.6 |
| 20260505052145 | 65 | 81 | 0.0 | 0.9 | 0.00 | 0.00 | 0.00 | 48 | 1007.6 |
| 20260505051545 | 65 | 81 | 0.0 | 0.9 | 0.00 | 0.00 | 0.00 | 50 | 1007.6 |
| 20260505051045 | 65 | 80 | 0.0 | 0.9 | 0.00 | 0.00 | 0.00 | 49 | 1007.5 |
| 20260505050544 | 65 | 81 | 0.0 | 0.9 | 0.00 | 0.00 | 0.00 | 49 | 1007.4 |